パンスターズ彗星

P/2022 D1 ( PanSTARRS )

English version
Home page
Updated on May 29, 2022

---------------------------------------------------------------------

・ プロフィール

発見日 2022年2月24日
発見光度 20.7等
発見者 Pan-STARRS 2 telescope (Haleakala)

・ 写真集

・ 軌道要素

Epoch 2022 Jan. 21.0 TT = JDT 2459600.5
T 2021 Aug. 28.09042 TT                                 Rudenko
q   3.3525821            (2000.0)            P               Q
n   0.04895078     Peri.   88.71292     -0.51855056     -0.68137701
a   7.4011003      Node    47.96708     +0.18005142     -0.67759586
e   0.5470157      Incl.   44.06351     +0.83587487     -0.27674757
P  20.1
From 96 observations 2022 Jan. 21-May 10, mean residual 0".5.

・ 光度変化

        m1 = 12.0 + 5 logΔ + 10.0 log r

---------------------------------------------------------------------

軌道要素はM.P.E.C. 2022-K19に掲載されたものです。
光度グラフはComet for Windowsで作成したものです。

---------------------------------------------------------------------

Copyright(C) Seiichi Yoshida (comet@aerith.net). All rights reserved.